GW1244 Weather Reports


Display with metric or nautical units.
time (UTC)temp
F
wind
direction
speed
MPH
gust
MPH
rain 1hr
in
rain 24hr
in
rain mn
in
humidity
%
barometer
mb
20260504151035 47 206 0.0 4.0 0.02 0.04 0.04 86 1005.8
20260504150535 47 294 1.0 5.0 0.02 0.04 0.04 85 1005.9
20260504141038 50 148 1.0 7.0 0.00 0.02 0.02 73 1005.0
20260504140535 50 0 2.0 8.0 0.00 0.02 0.02 76 1004.9
20260504130537 47 182 2.0 11.0 0.00 0.02 0.02 80 1005.4
20260504110535 38 0 0.0 1.0 0.02 0.02 0.02 91 1006.5
20260504100536 39 0 0.0 3.0 0.00 0.00 0.00 85 1006.5
20260504081540 32 0 0.0 0.0 0.00 0.00 0.00 90 1006.6
20260504081035 32 0 0.0 0.0 0.00 0.00 0.00 90 1006.6
20260504080534 32 0 0.0 0.0 0.00 0.00 0.00 89 1006.6
20260504050535 28 0 0.0 0.0 0.00 0.00 0.00 89 1006.8
20260504045535 28 0 0.0 0.0 0.00 0.00 0.00 89 1006.9
20260504045035 28 0 0.0 0.0 0.00 0.00 0.00 89 1006.9
20260504044549 28 0 0.0 0.0 0.00 0.00 0.00 89 1006.9
20260504044036 29 0 0.0 0.0 0.00 0.00 0.00 89 1007.0
20260504043536 29 0 0.0 0.0 0.00 0.00 0.00 89 1007.1
20260504043050 29 0 0.0 0.0 0.00 0.00 0.00 89 1007.0
20260504042535 29 0 0.0 0.0 0.00 0.00 0.00 88 1007.0
20260504042036 29 0 0.0 0.0 0.00 0.00 0.00 88 1007.1
20260504041545 29 0 0.0 0.0 0.00 0.00 0.00 88 1007.1
20260504041035 29 0 0.0 0.0 0.00 0.00 0.00 88 1007.1
20260504040537 29 0 0.0 0.0 0.00 0.00 0.00 88 1007.2
20260504040048 29 0 0.0 0.0 0.00 0.00 0.00 88 1007.1
20260504035536 29 0 0.0 0.0 0.00 0.00 0.00 88 1007.0
20260504035036 29 0 0.0 0.0 0.00 0.00 0.00 88 1007.0
20260504034554 29 0 0.0 0.0 0.00 0.00 0.00 88 1007.0
20260504034039 30 0 0.0 1.0 0.00 0.00 0.00 88 1006.9
20260504033535 30 0 0.0 1.0 0.00 0.00 0.00 88 1006.9
20260504033055 30 0 0.0 0.0 0.00 0.00 0.00 88 1007.0
20260504032537 30 0 0.0 0.0 0.00 0.00 0.00 87 1007.0
20260504032035 30 0 0.0 0.0 0.00 0.00 0.00 88 1007.2
20260504031602 30 0 0.0 0.0 0.00 0.00 0.00 87 1007.1
20260504031035 30 0 0.0 0.0 0.00 0.00 0.00 87 1007.0
20260504030535 30 0 0.0 0.0 0.00 0.00 0.00 87 1007.0
20260504030111 30 0 0.0 0.0 0.00 0.00 0.00 87 1007.1
20260504025537 30 0 0.0 0.0 0.00 0.01 0.00 87 1007.1
20260504025037 30 0 0.0 0.0 0.00 0.01 0.00 87 1007.2
20260504024550 30 0 0.0 0.0 0.00 0.01 0.00 87 1007.0
20260504024037 30 0 0.0 0.0 0.00 0.01 0.00 87 1007.0
20260504023537 31 0 0.0 0.0 0.00 0.01 0.00 87 1007.1
20260504023053 31 0 0.0 0.0 0.00 0.01 0.00 87 1007.1
20260504022538 31 0 0.0 0.0 0.00 0.01 0.00 86 1007.2
20260504022037 31 0 0.0 0.0 0.00 0.01 0.00 86 1007.2
20260504021545 31 0 0.0 0.0 0.00 0.01 0.00 86 1007.2
20260504021038 31 0 0.0 0.0 0.00 0.01 0.00 86 1007.2
20260504020537 32 0 0.0 0.0 0.00 0.01 0.00 85 1007.2
20260504020047 32 0 0.0 0.0 0.00 0.01 0.00 85 1007.2
20260504015537 32 0 0.0 0.0 0.00 0.01 0.00 85 1007.2
20260504015039 32 0 0.0 0.0 0.00 0.01 0.00 85 1007.2
20260504014549 32 0 0.0 0.0 0.00 0.01 0.00 85 1007.2
20260504014037 32 0 0.0 0.0 0.00 0.01 0.00 85 1007.2
20260504013538 32 0 0.0 0.0 0.00 0.01 0.00 84 1007.2
20260504013049 33 0 0.0 0.0 0.00 0.01 0.00 84 1007.2
20260504012537 33 0 0.0 0.0 0.00 0.01 0.00 84 1007.1
20260504012036 33 0 0.0 0.0 0.00 0.01 0.00 83 1007.0
20260504011549 33 0 0.0 0.0 0.00 0.01 0.00 83 1007.0
20260504011039 33 0 0.0 0.0 0.00 0.01 0.00 82 1007.1
20260504010536 33 0 0.0 0.0 0.00 0.01 0.00 82 1007.0
20260504010047 34 0 0.0 0.0 0.00 0.01 0.00 82 1007.0
20260504005537 34 0 0.0 0.0 0.00 0.01 0.00 82 1006.9
20260504005041 34 0 0.0 0.0 0.00 0.01 0.00 82 1006.9
20260504004545 34 0 0.0 0.0 0.00 0.01 0.00 81 1006.9
20260504004035 34 0 0.0 0.0 0.00 0.01 0.00 81 1006.9
20260504003538 35 0 0.0 0.0 0.00 0.01 0.00 80 1006.8
20260504003048 35 0 0.0 0.0 0.00 0.01 0.00 80 1006.8
20260504002536 35 0 0.0 0.0 0.00 0.01 0.00 79 1006.8
20260504002035 36 0 0.0 1.0 0.00 0.01 0.00 78 1006.8
20260504001553 36 0 0.0 1.0 0.00 0.01 0.00 78 1006.8
20260504001036 37 0 0.0 0.0 0.00 0.01 0.00 77 1006.7
20260504000536 37 0 0.0 1.0 0.00 0.01 0.00 75 1006.7
20260504000118 38 0 0.0 1.0 0.00 0.01 0.00 74 1006.7
20260503235536 38 0 0.0 2.0 0.00 0.01 0.00 72 1006.6
20260503235037 39 0 0.0 2.0 0.00 0.01 0.00 70 1006.6
20260503234550 40 0 0.0 2.0 0.00 0.01 0.00 66 1006.6
20260503234036 41 0 0.0 1.0 0.00 0.01 0.00 65 1006.6
20260503233535 42 0 0.0 1.0 0.00 0.01 0.00 64 1006.6
20260503233046 43 0 0.0 1.0 0.00 0.01 0.00 64 1006.6
20260503232535 44 0 0.0 2.0 0.00 0.01 0.00 62 1006.5
20260503232035 44 0 0.0 2.0 0.00 0.01 0.00 59 1006.6
20260503231548 45 0 0.0 2.0 0.00 0.01 0.00 59 1006.4
20260503231036 45 302 0.0 3.0 0.00 0.01 0.00 58 1006.5
20260503230536 45 0 0.0 3.0 0.00 0.01 0.00 58 1006.5
20260503230050 45 233 0.0 3.0 0.00 0.01 0.00 56 1006.5
20260503225536 45 0 0.0 3.0 0.00 0.01 0.00 57 1006.5
20260503225037 45 267 0.0 4.0 0.00 0.01 0.00 56 1006.5
20260503224543 45 0 1.0 4.0 0.00 0.01 0.00 55 1006.5
20260503224036 45 321 1.0 4.0 0.00 0.01 0.00 55 1006.5
20260503223536 45 325 1.0 4.0 0.00 0.01 0.00 55 1006.4
20260503223051 45 0 0.0 6.0 0.00 0.01 0.00 58 1006.4
20260503222535 45 0 2.0 6.0 0.00 0.01 0.00 57 1006.4
20260503222035 45 0 1.0 8.0 0.00 0.01 0.00 56 1006.5
20260503221548 45 0 2.0 8.0 0.00 0.01 0.00 55 1006.4
20260503221037 45 63 2.0 7.0 0.00 0.01 0.00 57 1006.3
20260503220536 45 269 0.0 7.0 0.00 0.01 0.00 57 1006.3
20260503220053 45 242 1.0 5.0 0.00 0.01 0.00 58 1006.4
20260503215536 45 0 2.0 6.0 0.00 0.01 0.00 57 1006.4
20260503215038 45 0 1.0 7.0 0.00 0.01 0.00 57 1006.4
20260503214545 45 246 0.0 8.0 0.00 0.01 0.00 59 1006.5
20260503214036 45 300 2.0 8.0 0.00 0.01 0.00 57 1006.6
20260503213536 44 296 1.0 8.0 0.00 0.01 0.00 57 1006.5
20260503213047 44 310 1.0 8.0 0.00 0.01 0.00 58 1006.5
20260503212539 44 264 1.0 6.0 0.00 0.01 0.00 56 1006.5
20260503212035 44 272 1.0 7.0 0.00 0.01 0.00 59 1006.5
20260503211547 44 337 0.0 8.0 0.00 0.01 0.00 58 1006.5
20260503211035 44 333 1.0 10.0 0.00 0.01 0.00 58 1006.5
20260503210535 44 285 3.0 13.0 0.00 0.01 0.00 57 1006.4
20260503210049 44 347 4.0 13.0 0.00 0.01 0.00 56 1006.4
20260503205535 44 51 3.0 8.0 0.00 0.01 0.00 56 1006.4
20260503205038 44 334 3.0 10.0 0.00 0.01 0.00 56 1006.3
20260503204547 45 168 2.0 10.0 0.00 0.01 0.00 57 1006.4
20260503204035 45 333 3.0 9.0 0.00 0.01 0.00 55 1006.4
20260503203535 45 324 2.0 6.0 0.00 0.01 0.00 59 1006.4
20260503203047 44 345 2.0 7.0 0.00 0.01 0.00 61 1006.2
20260503202535 44 322 2.0 9.0 0.00 0.01 0.00 60 1006.3
20260503202035 44 301 2.0 11.0 0.00 0.01 0.00 59 1006.3
20260503201547 44 15 4.0 11.0 0.00 0.01 0.00 61 1006.3
20260503201038 44 345 2.0 7.0 0.00 0.01 0.00 65 1006.3
20260503200535 44 19 0.0 9.0 0.00 0.01 0.00 66 1006.4
20260503200046 44 275 2.0 9.0 0.00 0.01 0.00 63 1006.4
20260503195536 43 334 3.0 9.0 0.00 0.01 0.00 65 1006.5
20260503195035 42 0 0.0 7.0 0.00 0.01 0.00 67 1006.5
20260503194541 42 289 1.0 16.0 0.00 0.01 0.00 66 1006.6
20260503194035 43 301 4.0 16.0 0.00 0.01 0.00 61 1006.7
20260503193536 44 245 5.0 16.0 0.00 0.01 0.00 61 1006.9
20260503193044 45 342 3.0 12.0 0.00 0.01 0.00 58 1006.6
20260503192535 45 238 4.0 12.0 0.00 0.01 0.00 56 1006.5
20260503192036 45 298 4.0 12.0 0.00 0.01 0.00 57 1006.5
20260503191542 45 345 4.0 18.0 0.00 0.01 0.00 56 1006.5
20260503191036 44 82 3.0 18.0 0.00 0.01 0.00 57 1006.6
20260503190535 44 256 7.0 18.0 0.00 0.01 0.00 57 1006.7
20260503190041 44 309 4.0 12.0 0.00 0.01 0.00 56 1006.6
20260503185535 45 0 2.0 11.0 0.00 0.06 0.00 56 1006.5
20260503185037 46 35 4.0 11.0 0.00 0.06 0.00 54 1006.4
20260503184603 46 322 3.0 10.0 0.00 0.06 0.00 56 1006.4
20260503184036 46 324 1.0 13.0 0.00 0.06 0.00 52 1006.4
20260503183536 45 275 5.0 13.0 0.00 0.06 0.00 52 1006.6
20260503183050 45 277 4.0 13.0 0.00 0.06 0.00 52 1006.6
20260503182535 45 331 2.0 13.0 0.00 0.06 0.00 52 1006.6
20260503182035 44 329 5.0 18.0 0.00 0.06 0.00 50 1006.6
20260503181548 44 306 7.0 18.0 0.00 0.06 0.00 49 1006.7
20260503181035 44 333 3.0 13.0 0.00 0.06 0.00 53 1006.7
20260503180536 44 360 6.0 16.0 0.00 0.06 0.00 52 1006.7
20260503180045 44 355 4.0 16.0 0.00 0.06 0.00 57 1006.8
20260503175536 45 277 5.0 12.0 0.00 0.06 0.00 56 1006.7
20260503175038 45 296 4.0 12.0 0.00 0.06 0.00 55 1006.6
20260503174547 45 294 4.0 13.0 0.00 0.06 0.00 55 1006.5
20260503174037 46 330 7.0 13.0 0.00 0.06 0.00 52 1006.4
20260503173540 46 313 4.0 13.0 0.00 0.06 0.00 54 1006.4
20260503173048 46 343 4.0 13.0 0.00 0.06 0.00 51 1006.4
20260503172536 45 317 5.0 15.0 0.00 0.06 0.00 51 1006.6
20260503172040 44 327 4.0 15.0 0.00 0.06 0.00 54 1006.6
20260503171607 44 12 4.0 10.0 0.00 0.06 0.00 56 1006.7
20260503171036 45 93 3.0 14.0 0.00 0.06 0.00 59 1006.8
20260503170537 45 360 4.0 14.0 0.00 0.06 0.00 57 1006.6